Weather History for Bentonville, AR

Change the Weather History Date:

Tuesday, June 25, 2013

  Actual Average Record
Temperature  
Mean Temperature 81 °F -  
Max Temperature 87 °F 85 °F 100 °F (2012)
Min Temperature 75 °F 64 °F 47 °F (1974)
Cooling Degree Days 16    
Growing Degree Days 31 (Base 50)    
Moisture  
Dew Point 67 °F    
Average Humidity 63    
Maximum Humidity 78    
Minimum Humidity 49    
Precipitation  
Precipitation 0.00 in - - ()
Sea Level Pressure  
Sea Level Pressure 29.95 in    
Wind  
Wind Speed 10 mph (South)    
Max Wind Speed 18 mph    
Max Gust Speed 31 mph    
Visibility 10 miles    
Events      
Averages and records for this station are not official NWS values.
T = Trace of Precipitation, MM = Missing Value Source: NWS Daily Summary

Daily Weather History Graph

Daily Weather History Graph

Search for Another Location

Airport:

Trip Planner

Search our weather history database for the weather conditions in past years. The results will help you decide how hot, cold, wet, or windy it might be!

Date:

Astronomy

Jun. 25, 2013 Rise Set
Actual Time 6:00 AM CDT 8:38 PM CDT
Civil Twilight 5:30 AM CDT 9:08 PM CDT
Nautical Twilight 4:52 AM CDT 9:46 PM CDT
Astronomical Twilight 4:09 AM CDT 10:29 PM CDT
Moon 10:30 PM CDT (6/25) 8:36 AM CDT (6/25)
Length of Visible Light 15h 38m
Length of Day
14h 37m
Waning Gibbous, 92% of the Moon is Illuminated
Jun 25
Waning Gibbous
Jun 29
Last Quarter
Jul 8
New
Jul 15
First Quarter
Jul 22
Full

Hourly Weather History & Observations

Time (CDT) Temp. Heat Index Dew Point Humidity Pressure Visibility Wind Dir Wind Speed Gust Speed Precip Events Conditions
12:35 AM 75.2 °F - 66.2 °F 73% 29.99 in 10.0 mi South 6.9 mph - N/A   Clear
12:55 AM 75.2 °F - 66.2 °F 73% 29.99 in 10.0 mi SSE 6.9 mph - N/A   Clear
1:15 AM 75.2 °F - 66.2 °F 73% 29.98 in 10.0 mi South 6.9 mph - N/A   Clear
1:35 AM 75.2 °F - 66.2 °F 73% 29.98 in 10.0 mi South 8.1 mph - N/A   Clear
1:55 AM 77.0 °F - 66.2 °F 69% 29.98 in 10.0 mi South 10.4 mph - N/A   Clear
2:15 AM 77.0 °F - 68.0 °F 74% 29.98 in 10.0 mi South 8.1 mph - N/A   Clear
2:35 AM 77.0 °F - 68.0 °F 74% 29.99 in 10.0 mi SSW 5.8 mph - N/A   Clear
2:56 AM 75.2 °F - 66.2 °F 73% 29.99 in 10.0 mi SSW 4.6 mph - N/A   Clear
3:15 AM 77.0 °F - 68.0 °F 74% 29.98 in 10.0 mi South 6.9 mph - N/A   Clear
3:35 AM 77.0 °F - 68.0 °F 74% 29.98 in 10.0 mi South 9.2 mph - N/A   Clear
3:55 AM 77.0 °F - 68.0 °F 74% 29.97 in 10.0 mi South 10.4 mph - N/A   Clear
4:15 AM 77.0 °F - 68.0 °F 74% 29.97 in 10.0 mi South 9.2 mph - N/A   Clear
4:35 AM 75.2 °F - 68.0 °F 78% 29.97 in 10.0 mi South 8.1 mph - N/A   Clear
4:55 AM 75.2 °F - 68.0 °F 78% 29.96 in 10.0 mi South 8.1 mph - N/A   Clear
5:15 AM 75.2 °F - 68.0 °F 78% 29.97 in 10.0 mi South 8.1 mph - N/A   Clear
5:35 AM 75.2 °F - 68.0 °F 78% 29.97 in 10.0 mi South 8.1 mph - N/A   Clear
5:55 AM 75.2 °F - 68.0 °F 78% 29.98 in 10.0 mi South 8.1 mph - N/A   Clear
6:16 AM 75.2 °F - 68.0 °F 78% 29.98 in 10.0 mi South 8.1 mph - N/A   Clear
6:35 AM 75.2 °F - 68.0 °F 78% 29.98 in 10.0 mi South 8.1 mph - N/A   Clear
6:55 AM 75.2 °F - 68.0 °F 78% 29.98 in 10.0 mi South 9.2 mph - N/A   Clear
7:16 AM 77.0 °F - 68.0 °F 74% 29.98 in 10.0 mi South 9.2 mph - N/A   Clear
7:35 AM 78.8 °F - 69.8 °F 74% 29.99 in 10.0 mi South 10.4 mph - N/A   Clear
7:55 AM 78.8 °F - 69.8 °F 74% 29.99 in 10.0 mi SSW 10.4 mph - N/A   Clear
8:15 AM 78.8 °F - 69.8 °F 74% 29.99 in 10.0 mi SSW 10.4 mph 17.3 mph N/A   Clear
8:35 AM 80.6 °F 83.9 °F 69.8 °F 70% 29.99 in 10.0 mi South 13.8 mph 18.4 mph N/A   Clear
8:55 AM 80.6 °F 83.9 °F 69.8 °F 70% 29.99 in 10.0 mi SSW 13.8 mph 19.6 mph N/A   Clear
9:15 AM 82.4 °F 86.3 °F 69.8 °F 66% 29.99 in 10.0 mi SSW 13.8 mph 21.9 mph N/A   Clear
9:35 AM 82.4 °F 85.4 °F 68.0 °F 62% 29.99 in 10.0 mi South 13.8 mph 21.9 mph N/A   Clear
9:55 AM 82.4 °F 84.6 °F 66.2 °F 58% 29.99 in 10.0 mi SSW 13.8 mph 19.6 mph N/A   Clear
10:15 AM 82.4 °F 84.6 °F 66.2 °F 58% 29.99 in 10.0 mi SSW 17.3 mph 20.7 mph N/A   Clear
10:16 AM 82.4 °F 84.6 °F 66.2 °F 58% 29.99 in 10.0 mi SSW 15.0 mph 20.7 mph N/A   Clear
10:35 AM 82.4 °F 84.6 °F 66.2 °F 58% 29.99 in 10.0 mi South 15.0 mph 20.7 mph N/A   Clear
10:55 AM 82.4 °F 84.6 °F 66.2 °F 58% 30.00 in 10.0 mi SSW 13.8 mph 21.9 mph N/A   Clear
11:15 AM 84.2 °F 87.3 °F 68.0 °F 58% 30.00 in 10.0 mi South 11.5 mph 18.4 mph N/A   Clear
11:35 AM 84.2 °F 87.3 °F 68.0 °F 58% 30.00 in 10.0 mi SSW 13.8 mph 20.7 mph N/A   Clear
11:55 AM 84.2 °F 86.6 °F 66.2 °F 55% 30.00 in 10.0 mi South 15.0 mph 20.7 mph N/A   Clear
12:15 PM 86.0 °F 88.2 °F 66.2 °F 51% 29.99 in 10.0 mi SSW 16.1 mph 20.7 mph N/A   Clear
12:35 PM 86.0 °F 88.2 °F 66.2 °F 51% 29.99 in 10.0 mi South 12.7 mph 20.7 mph N/A   Clear
12:55 PM 86.0 °F 88.2 °F 66.2 °F 51% 29.99 in 10.0 mi South 15.0 mph 21.9 mph N/A   Clear
1:15 PM 87.8 °F 90.4 °F 66.2 °F 49% 29.98 in 10.0 mi South 15.0 mph 21.9 mph N/A   Clear
1:35 PM 87.8 °F 90.4 °F 66.2 °F 49% 29.98 in 10.0 mi South 10.4 mph 21.9 mph N/A   Clear
1:55 PM 87.8 °F 91.4 °F 68.0 °F 52% 29.97 in 10.0 mi South 15.0 mph 18.4 mph N/A   Clear
2:15 PM 87.8 °F 91.4 °F 68.0 °F 52% 29.97 in 10.0 mi South 16.1 mph 20.7 mph N/A   Clear
2:36 PM 87.8 °F 91.4 °F 68.0 °F 52% 29.96 in 10.0 mi South 17.3 mph 20.7 mph N/A   Clear
2:55 PM 84.2 °F 85.6 °F 64.4 °F 51% 29.93 in 10.0 mi South 13.8 mph 24.2 mph N/A   Clear
3:15 PM 84.2 °F 86.6 °F 66.2 °F 55% 29.89 in 10.0 mi South 17.3 mph 31.1 mph N/A   Clear
3:36 PM 86.0 °F 88.2 °F 66.2 °F 51% 29.91 in 10.0 mi South 15.0 mph 26.5 mph N/A   Clear
3:55 PM 87.8 °F 90.4 °F 66.2 °F 49% 29.91 in 10.0 mi South 17.3 mph 25.3 mph N/A   Clear
4:15 PM 87.8 °F 90.4 °F 66.2 °F 49% 29.91 in 10.0 mi SSW 16.1 mph 26.5 mph N/A   Clear
4:55 PM 87.8 °F 90.4 °F 66.2 °F 49% 29.91 in 10.0 mi SSW 13.8 mph 24.2 mph N/A   Clear
5:15 PM 87.8 °F 90.4 °F 66.2 °F 49% 29.90 in 10.0 mi South 18.4 mph 23.0 mph N/A   Clear
5:36 PM 86.0 °F 88.2 °F 66.2 °F 51% 29.89 in 10.0 mi South 17.3 mph 26.5 mph N/A   Clear
5:55 PM 84.2 °F 86.6 °F 66.2 °F 55% 29.88 in 10.0 mi South 12.7 mph 20.7 mph N/A   Partly Cloudy
6:15 PM 84.2 °F 86.6 °F 66.2 °F 55% 29.88 in 10.0 mi South 15.0 mph 19.6 mph N/A   Partly Cloudy
6:35 PM 84.2 °F 86.6 °F 66.2 °F 55% 29.88 in 10.0 mi South 15.0 mph 23.0 mph N/A   Clear
6:55 PM 84.2 °F 86.6 °F 66.2 °F 55% 29.87 in 10.0 mi South 12.7 mph 23.0 mph N/A   Clear
7:15 PM 84.2 °F 86.6 °F 66.2 °F 55% 29.88 in 10.0 mi South 9.2 mph 19.6 mph N/A   Clear
7:35 PM 84.2 °F 86.6 °F 66.2 °F 55% 29.88 in 10.0 mi South 13.8 mph 24.2 mph N/A   Clear
7:55 PM 82.4 °F 84.6 °F 66.2 °F 58% 29.88 in 10.0 mi South 13.8 mph 18.4 mph N/A   Clear
8:15 PM 82.4 °F 84.6 °F 66.2 °F 58% 29.87 in 10.0 mi South 9.2 mph - N/A   Clear
8:35 PM 80.6 °F 82.7 °F 66.2 °F 61% 29.87 in 10.0 mi South 11.5 mph - N/A   Clear
9:15 PM 80.6 °F 82.7 °F 66.2 °F 61% 29.87 in 10.0 mi South 8.1 mph - N/A   Clear
9:35 PM 80.6 °F 82.7 °F 66.2 °F 61% 29.88 in 10.0 mi South 9.2 mph - N/A   Clear
9:55 PM 78.8 °F - 66.2 °F 65% 29.89 in 10.0 mi South 8.1 mph - N/A   Clear
10:15 PM 78.8 °F - 66.2 °F 65% 29.89 in 10.0 mi South 5.8 mph - N/A   Clear
10:36 PM 78.8 °F - 66.2 °F 65% 29.89 in 10.0 mi South 5.8 mph - N/A   Clear
10:55 PM 78.8 °F - 66.2 °F 65% 29.89 in 10.0 mi SSW 5.8 mph - N/A   Clear
11:15 PM 78.8 °F - 66.2 °F 65% 29.90 in 10.0 mi South 5.8 mph - N/A   Clear
11:35 PM 77.0 °F - 66.2 °F 69% 29.89 in 10.0 mi South 5.8 mph - N/A   Clear
11:55 PM 75.2 °F - 66.2 °F 73% 29.89 in 10.0 mi South 6.9 mph - N/A   Clear